Lapse_Rate
6.0 6.1 6.0 5.6 5.2 5.0 5.3 4.8 5.4 5.8 5.9 6.4 6.8 7.0 7.2 7.3 7.6 7.6 7.7 7.8 7.5 7.1 6.9 7.0 6.9 7.1 7.0 7.0 6.7 6.6 6.6 6.6 6.5 6.4 5.9 5.6 5.7 5.6 5.3 5.0 4.6 4.4 3.9 3.9 4.2 4.4 4.8
5.4 5.9 6.0 5.8 5.4 5.1 4.8 4.8 5.0 5.3 5.8 5.9 6.5 6.8 7.2 7.2 7.3 7.3 7.6 7.6 7.8 7.6 7.1 7.4 7.3 7.3 7.2 6.9 6.9 6.8 6.9 6.7 6.6 6.5 6.2 5.9 5.7 5.8 5.4 4.9 4.7 4.1 4.1 4.2 4.2 4.3 4.1
4.8 5.2 5.9 5.8 5.7 5.3 4.9 4.7 4.7 5.0 5.2 5.6 6.2 6.6 7.0 7.1 7.0 7.0 7.2 7.7 7.8 7.5 7.2 7.4 7.4 7.4 7.5 7.3 7.0 7.1 6.9 6.6 6.8 6.5 6.1 5.8 5.5 5.7 5.2 4.8 4.6 4.9 5.2 4.3 4.0 3.9 4.1
4.9 4.5 5.0 5.4 5.4 5.5 5.1 4.7 4.4 5.0 5.2 5.4 5.6 6.3 6.6 7.0 6.9 6.7 7.1 7.2 7.5 7.7 7.7 7.6 7.7 7.7 7.9 7.8 7.4 7.3 7.1 6.9 6.9 6.9 6.6 6.1 5.8 5.5 5.2 5.3 4.7 5.0 4.7 4.2 4.1 4.1 4.0
3.8 4.0 4.3 4.9 5.0 5.1 5.2 5.0 4.7 4.6 5.5 5.5 5.4 5.9 6.4 6.6 6.9 6.8 6.6 7.1 7.3 7.4 7.3 7.5 7.5 7.6 7.7 7.7 7.5 7.4 7.4 7.1 7.0 7.1 6.7 6.5 6.2 5.9 5.7 5.6 4.8 4.8 4.9 4.8 4.1 4.0 4.0
3.2 3.3 3.7 4.1 4.6 4.6 4.9 5.0 5.1 5.0 5.3 5.7 5.2 5.7 6.2 6.3 6.6 6.8 6.7 6.8 6.7 6.8 6.8 7.3 7.3 7.3 7.5 7.1 7.4 7.4 7.2 7.0 6.8 6.8 6.5 6.2 5.9 5.6 5.4 5.0 5.2 4.7 4.6 4.3 4.3 4.2 4.5
3.5 3.4 3.3 3.3 3.8 4.4 4.3 5.0 5.2 5.5 5.8 5.3 5.6 5.4 6.0 6.2 6.3 6.5 6.6 6.7 6.6 6.5 6.8 7.2 7.7 7.1 6.6 7.0 7.5 7.5 7.2 6.7 6.7 7.0 6.5 6.1 5.9 5.5 5.4 5.5 5.5 5.6 4.8 4.6 4.3 4.3 4.9
3.6 3.7 3.7 3.7 3.8 3.9 4.4 4.7 5.4 6.0 6.1 5.5 5.8 5.6 5.7 6.2 6.2 6.3 6.4 6.6 6.5 6.5 6.6 7.1 7.4 7.1 6.9 7.3 7.5 7.4 6.9 6.6 6.7 6.7 6.1 5.9 5.9 5.5 5.4 5.2 5.3 5.2 5.1 4.6 4.3 4.4 5.0
3.8 4.0 4.1 4.1 4.2 4.1 4.2 4.5 5.3 5.7 5.7 5.8 5.5 5.7 5.3 6.3 6.1 6.1 6.2 6.2 6.2 6.3 6.6 6.6 6.9 7.2 7.3 7.4 7.5 7.4 7.0 7.1 6.6 6.1 6.1 5.9 5.6 5.2 5.3 5.1 5.2 5.0 5.3 5.1 5.3 4.8 5.0
4.0 4.3 4.3 4.3 4.2 4.2 3.9 4.3 5.1 5.7 5.9 5.7 5.9 5.4 5.8 5.9 5.9 6.0 6.1 5.9 5.9 6.2 6.3 6.6 7.1 7.1 7.0 7.2 7.2 7.3 6.8 6.8 6.3 5.8 5.7 5.5 5.4 5.1 5.2 5.4 5.2 5.2 5.3 5.3 5.2 5.2 5.0
4.2 4.3 4.6 4.7 4.8 5.0 4.5 4.3 4.5 5.4 5.5 5.7 5.5 6.0 5.6 5.7 6.2 6.1 5.8 5.9 5.9 6.0 5.4 6.7 6.7 6.9 6.9 6.9 7.0 6.7 6.5 6.2 6.0 5.8 5.5 5.2 4.8 4.9 5.1 5.3 5.4 5.3 5.2 5.2 5.2 5.3 5.5
5.1 4.9 4.7 4.7 5.0 5.2 5.1 4.9 4.5 4.9 5.4 5.5 5.6 5.8 5.6 6.2 5.7 6.2 6.0 6.0 5.8 6.1 5.7 6.1 6.4 6.7 6.8 6.6 6.7 6.3 6.2 5.9 5.7 5.5 5.2 5.2 4.9 4.9 5.2 5.2 5.4 5.5 5.3 5.4 5.5 5.7 5.5
5.6 5.2 4.9 4.8 5.1 5.3 5.2 5.1 5.0 4.4 4.7 5.2 5.2 6.0 5.8 5.7 5.9 5.6 5.6 5.5 5.5 5.2 5.8 6.0 6.2 6.9 6.6 6.5 6.5 6.0 6.2 6.0 6.0 5.4 5.0 4.8 4.8 5.0 5.0 5.2 5.3 5.3 5.4 5.4 4.2 4.0 4.1
5.6 5.5 5.3 5.1 5.1 5.3 5.3 5.2 5.0 4.6 4.3 4.6 5.2 5.2 5.7 5.7 5.2 5.7 5.4 5.5 4.9 5.2 5.7 6.1 6.4 6.0 6.1 6.1 6.1 5.8 5.9 6.0 5.8 5.7 5.3 5.1 4.4 4.8 4.7 5.2 5.3 5.3 5.5 5.5 2.6 3.2 5.3
5.6 5.5 5.4 5.3 5.3 5.4 5.4 5.2 5.0 4.5 4.4 4.6 5.2 5.6 5.8 6.2 5.2 5.2 5.2 4.7 4.8 5.1 5.4 6.3 5.5 5.5 5.1 5.3 5.8 5.5 5.5 5.6 5.8 5.7 5.9 5.1 4.7 4.8 4.9 5.2 5.4 5.2 5.3 5.3 5.3 5.1 4.9
5.4 5.2 5.2 5.2 5.4 5.5 5.4 5.3 4.7 4.7 4.4 5.1 5.3 6.1 5.7 5.7 5.7 5.0 4.9 4.7 5.0 5.7 5.6 6.3 6.2 5.9 5.3 5.2 5.6 5.8 5.5 5.6 5.5 5.7 5.7 5.5 5.1 4.8 5.0 5.2 5.3 5.4 5.4 5.3 5.5 2.3 1.9
5.1 5.2 5.3 5.3 5.3 5.3 5.3 5.1 4.7 4.6 4.6 4.7 5.4 5.4 5.6 5.4 5.3 5.4 4.7 4.1 5.2 5.8 5.6 6.1 6.4 6.3 6.2 6.1 6.0 6.1 6.0 5.8 5.6 5.5 5.6 5.5 5.7 4.9 4.9 5.1 5.5 5.4 5.4 5.6 5.5 4.9 3.0
4.9 5.0 5.2 5.3 5.1 5.2 5.2 4.9 4.8 4.6 4.6 4.7 5.2 5.1 5.3 5.7 5.6 5.4 4.5 4.1 5.1 5.7 5.4 5.9 6.3 6.7 7.3 6.6 6.2 5.9 6.1 5.8 5.9 5.7 5.4 5.4 5.5 4.8 5.1 5.2 5.3 5.3 5.5 5.7 5.8 5.0 4.8
4.8 4.9 4.9 5.0 5.0 5.1 5.1 4.9 4.9 4.7 4.7 5.0 5.0 4.9 5.7 5.9 5.7 5.3 4.8 4.9 5.3 6.0 5.7 5.6 6.1 6.4 6.7 6.8 5.9 5.5 5.8 5.6 5.8 5.8 5.3 5.5 5.4 4.4 4.4 4.8 5.0 5.2 5.7 5.8 5.8 5.6 5.5
4.6 4.7 4.9 4.9 4.8 4.9 5.1 5.0 5.0 4.8 4.7 4.8 4.9 5.3 5.7 5.8 6.1 5.6 5.1 4.8 5.1 5.9 5.9 5.7 6.1 6.3 6.3 6.1 5.8 5.6 5.8 5.5 5.7 5.7 5.3 5.4 5.7 5.6 5.9 6.0 6.2 5.9 6.2 6.0 5.6 5.7 5.9
4.7 4.7 4.6 4.9 4.8 4.9 5.0 5.1 5.2 5.1 5.0 4.7 4.4 4.5 5.5 5.5 6.0 5.8 5.3 5.0 5.5 5.7 5.7 5.9 5.9 6.2 6.4 5.7 5.7 5.7 5.7 5.5 5.5 5.3 5.0 5.2 5.5 5.5 5.7 6.0 6.1 6.1 6.2 6.3 6.3 6.4 6.3
4.7 4.7 4.5 4.6 4.8 4.7 5.0 4.9 5.2 5.2 4.9 4.9 5.1 5.1 5.6 5.7 5.9 6.0 5.7 5.0 6.3 6.1 5.6 5.7 5.7 6.0 6.2 6.8 7.2 7.2 6.5 5.8 5.7 5.1 4.9 5.3 5.4 5.5 5.4 5.7 5.9 6.0 6.1 6.3 6.2 6.2 6.2
5.5 4.8 4.6 4.5 4.6 4.8 5.0 4.9 5.0 5.1 5.3 5.6 5.5 5.2 5.3 5.5 6.3 6.2 5.4 6.2 6.0 6.1 5.6 5.8 5.9 6.3 6.3 6.5 6.4 6.0 5.7 5.7 5.8 5.9 6.0 5.4 5.4 5.5 5.5 5.8 5.6 5.8 7.2 7.0 7.0 6.9 6.7
5.6 5.5 4.9 4.6 4.7 4.8 4.8 4.9 4.9 5.2 5.5 6.0 6.3 6.4 5.3 5.3 6.0 5.8 5.7 6.1 6.2 5.9 5.6 5.8 6.2 6.3 6.3 6.2 5.9 5.9 5.5 5.2 5.1 5.4 5.2 5.6 5.4 5.2 5.1 5.3 3.5 6.8 6.8 7.0 6.9 6.7 7.1
5.7 5.2 5.1 4.9 4.8 4.7 4.8 4.9 4.8 5.2 5.1 5.2 5.6 6.5 6.3 6.0 6.1 5.9 6.1 5.7 6.3 6.1 5.6 6.1 6.1 6.3 6.5 6.1 5.7 5.3 4.7 4.7 4.7 5.1 5.4 4.9 5.1 5.2 5.2 5.2 6.3 6.9 7.0 7.2 7.0 7.1 7.3
5.6 5.4 5.1 4.9 5.0 4.8 4.8 5.0 4.8 5.2 5.1 5.0 5.3 6.5 6.0 5.9 5.9 5.7 5.9 5.8 6.1 5.7 5.9 6.1 6.3 6.3 6.5 6.2 5.9 5.3 5.0 5.1 4.7 4.7 4.6 4.7 4.7 5.3 4.9 5.3 4.7 6.9 7.1 7.0 6.8 7.2 7.5
5.5 5.7 5.6 5.4 4.9 4.9 4.9 5.0 5.0 5.4 5.7 5.7 5.8 6.0 5.7 5.5 5.8 6.0 5.9 5.7 6.3 5.9 6.0 5.8 5.7 5.5 5.8 6.1 5.6 5.4 5.3 5.1 5.0 4.4 4.3 4.2 4.5 4.7 4.8 5.1 6.5 7.4 7.4 6.6 6.6 7.5 7.5
5.8 5.7 5.7 5.7 5.2 4.8 4.9 4.9 5.2 6.1 6.1 5.7 6.8 5.5 5.3 5.7 6.0 5.9 5.9 5.9 5.9 5.9 5.7 5.5 5.7 5.4 5.4 5.5 5.4 5.4 5.5 5.5 5.3 5.4 5.1 4.7 4.3 4.4 4.4 4.6 5.8 7.5 7.1 6.8 7.3 7.4 7.6
6.3 5.4 6.0 5.6 5.3 4.8 4.9 4.9 6.0 6.9 6.1 5.1 5.4 5.7 6.1 5.5 6.0 6.0 5.9 6.3 6.8 6.5 5.7 5.8 6.1 6.3 6.1 5.5 5.2 5.6 5.6 5.5 5.6 5.1 5.1 5.3 5.9 6.1 6.2 6.9 7.2 7.4 7.1 7.4 7.3 7.3 7.6
Wind_Speed
14 16 12 13 13 12 12 13 15 12 20 19 18 17 14 8 11 6 7 11 14 13 13 17 20 27 4 4 1 9 23 18 13 9 10 7 9 5 9 16 24 25 16 16 15 14 13
13 15 14 13 12 12 11 12 15 14 19 22 20 19 16 13 11 9 9 7 13 18 14 15 17 17 2 2 5 13 15 10 7 8 8 9 7 21 13 5 7 9 20 19 16 15 13
16 15 15 15 13 11 9 9 13 14 16 24 23 20 18 14 12 9 10 9 14 13 19 15 12 3 3 2 5 13 9 4 5 4 6 4 1 7 6 16 16 16 20 14 15 7 15
19 17 15 15 15 14 11 11 11 12 18 20 24 22 20 17 14 11 10 10 15 16 17 16 19 1 1 3 6 5 6 5 8 5 4 8 3 9 6 14 5 9 6 5 5 9 2
18 18 16 13 15 13 12 11 12 12 17 16 24 24 22 19 16 12 10 11 14 18 16 15 3 2 0 2 2 4 3 4 7 6 7 3 7 6 6 8 4 1 4 9 5 6 5
15 19 16 16 15 15 13 12 11 11 15 23 22 26 24 20 17 13 10 7 13 15 5 3 3 3 2 2 3 3 3 4 3 6 7 7 7 5 4 3 5 7 6 4 6 3 10
17 16 18 16 15 16 15 13 13 9 12 22 20 27 25 22 18 12 2 3 1 3 2 3 3 4 4 1 3 6 4 5 1 5 4 5 8 3 3 2 7 13 9 9 5 7 7
17 16 17 17 15 14 16 16 14 12 9 13 27 25 26 24 18 10 2 2 2 3 2 0 5 5 2 1 2 5 5 4 4 4 3 7 5 4 6 13 13 15 14 5 2 6 8
18 15 17 17 18 15 16 16 13 13 6 9 17 10 26 23 16 6 3 6 3 3 3 2 2 3 4 2 1 2 4 2 6 6 6 6 2 7 8 7 11 4 6 4 7 2 5
18 17 16 16 17 16 16 15 11 11 7 6 13 24 26 26 7 4 4 3 6 3 4 4 5 4 4 4 2 1 3 3 4 7 6 5 5 8 8 6 3 5 3 8 7 4 4
20 18 17 16 16 17 17 15 12 9 7 4 11 16 25 26 7 5 7 10 2 4 2 2 5 1 6 5 5 0 1 4 6 5 6 3 4 6 6 0 2 4 3 6 4 4 4
20 19 18 17 17 17 17 15 13 10 9 5 6 9 16 12 3 4 8 10 4 6 7 5 4 6 7 3 2 2 3 6 4 10 8 4 1 4 2 2 3 5 4 7 5 3 3
20 19 19 18 17 17 17 15 13 11 9 7 1 11 13 9 6 16 11 4 4 5 4 7 6 7 7 5 4 3 5 5 6 5 2 4 4 4 4 5 5 4 5 3 4 3 5
20 19 20 18 17 18 18 16 13 12 10 6 3 1 8 9 8 17 3 4 4 9 6 5 6 12 5 7 2 5 5 3 4 5 5 5 1 3 4 2 3 2 5 5 6 3 3
23 22 20 20 18 17 19 17 13 13 12 6 2 2 3 3 14 9 6 8 8 6 8 8 11 9 4 4 6 5 5 7 3 2 6 5 1 2 5 2 2 2 3 4 5 4 4
26 24 23 20 19 17 19 19 16 14 16 9 1 2 5 7 9 6 6 13 6 5 8 15 6 6 7 10 5 6 8 3 5 3 3 6 4 2 2 1 6 4 1 3 3 2 3
29 27 26 24 21 19 19 20 18 16 15 12 2 1 3 13 6 9 16 8 6 6 12 7 6 6 7 7 7 5 7 1 4 5 6 5 4 4 2 3 6 3 3 5 5 3 5
31 31 29 27 24 22 21 22 21 20 19 6 2 2 4 11 11 6 13 7 3 5 5 7 5 6 9 9 5 4 8 5 7 9 7 5 5 3 3 2 4 4 6 5 4 5 1
34 33 32 30 28 26 23 24 25 26 23 4 4 1 1 7 11 13 11 11 5 4 9 7 6 5 5 8 5 4 5 4 11 6 8 7 1 4 3 5 3 3 4 4 6 3 5
35 35 34 33 31 29 27 28 29 31 24 4 2 1 3 3 15 8 13 20 21 4 5 5 5 6 8 5 4 5 4 3 6 3 6 7 3 6 7 5 5 4 5 5 5 4 4
38 37 37 35 34 32 31 31 32 35 27 4 3 4 1 3 13 15 15 21 22 7 5 6 3 10 9 6 4 5 4 5 4 7 4 5 4 4 3 3 4 6 9 11 7 6 6
39 40 39 37 36 36 35 34 36 38 30 3 4 4 4 4 13 18 19 20 33 27 7 7 9 11 5 8 8 10 9 5 6 4 4 1 2 2 2 3 6 5 11 16 13 4 5
37 39 40 40 39 38 38 39 40 43 29 3 4 2 3 3 11 20 19 23 28 18 4 9 13 7 7 7 7 8 6 7 9 8 4 5 5 3 2 2 3 7 12 15 8 6 11
34 36 39 40 40 41 41 42 47 48 35 3 3 2 5 5 13 23 25 22 22 16 7 5 10 6 2 21 16 11 8 7 8 4 5 6 5 3 3 3 1 7 2 13 16 10 13
30 33 37 40 42 42 43 45 49 49 42 5 3 4 4 5 17 20 24 24 16 8 6 6 3 10 17 16 8 5 4 3 1 5 4 5 4 3 4 3 6 5 5 8 8 7 13
29 32 36 40 42 43 44 47 50 49 41 11 4 1 3 1 12 21 27 27 12 10 4 4 8 15 7 4 4 5 5 5 5 5 5 5 5 4 2 3 6 6 1 7 5 4 5
33 34 35 39 42 44 45 48 50 49 44 15 4 6 3 2 9 23 23 25 10 6 5 4 7 3 4 3 3 3 4 6 6 8 6 4 2 6 1 2 8 8 5 4 5 6 3
37 37 38 38 42 44 46 49 51 49 45 17 8 16 9 6 12 19 20 18 10 9 8 9 6 3 3 4 4 4 3 6 4 6 8 6 6 4 3 2 8 7 3 7 6 2 5
40 40 41 40 41 44 47 50 51 49 44 31 5 12 15 5 6 7 10 9 22 8 11 2 8 7 5 4 1 4 2 3 6 4 3 4 7 6 9 7 6 6 4 5 7 6 5
Wind_Direction
289 290 288 290 309 322 341 336 336 261 228 226 226 223 221 224 247 222 265 300 307 314 329 338 349 339 350 44 334 313 347 339 357 7 32 12 45 92 92 103 86 101 110 106 114 103 95
283 284 289 277 285 303 317 336 336 330 248 230 224 225 222 212 234 246 254 276 298 309 322 337 350 344 3 60 304 326 344 342 360 15 0 38 39 117 123 120 86 150 122 123 115 105 95
277 274 275 280 279 280 296 310 332 346 332 230 223 222 224 218 224 237 259 279 290 297 316 330 342 353 31 212 316 329 354 294 332 22 360 358 295 93 97 90 119 127 113 108 125 127 123
274 271 270 274 276 264 275 297 322 344 350 244 222 218 220 219 219 228 249 276 287 303 312 326 323 203 175 275 318 352 0 338 353 337 0 320 43 103 87 115 92 120 101 125 147 165 24
278 261 258 266 274 276 261 276 298 345 349 316 220 219 215 216 218 219 249 268 300 300 303 315 307 43 305 292 352 324 32 342 331 353 337 348 64 76 58 103 91 322 112 116 54 358 124
289 261 250 259 264 267 271 263 279 309 330 358 221 217 212 208 214 218 238 287 293 305 5 275 228 64 351 129 286 348 304 357 357 352 14 33 49 67 41 104 192 158 127 62 130 309 87
290 276 259 255 262 259 264 269 266 280 306 334 324 212 207 202 204 210 250 359 352 342 23 262 217 107 128 144 356 16 347 352 344 43 79 24 74 97 354 310 113 106 109 115 116 168 106
288 292 272 256 258 261 257 263 267 256 278 317 341 208 200 197 192 178 97 168 196 144 211 5 86 98 96 168 188 355 25 60 63 73 62 44 75 324 83 77 98 113 120 127 73 151 104
278 280 280 257 254 256 254 259 270 254 259 305 319 247 194 181 156 128 191 216 345 102 126 286 54 166 139 99 176 334 41 50 97 70 55 112 165 48 85 59 96 70 128 177 140 150 70
271 273 269 264 247 254 251 247 258 260 246 305 319 331 170 151 120 162 225 245 273 72 73 217 193 207 117 119 346 257 8 133 78 115 89 73 345 93 71 68 56 75 357 116 126 93 159
267 266 267 262 247 249 244 235 243 255 240 273 325 307 171 154 140 154 223 186 316 62 83 181 138 92 137 149 127 271 314 34 120 131 90 265 89 78 74 258 101 163 101 126 123 127 90
266 262 261 257 250 241 236 226 233 239 219 230 306 293 238 181 140 186 140 117 53 57 233 158 135 168 143 178 144 159 81 61 116 71 63 99 60 67 116 20 139 142 82 37 42 75 29
267 263 259 255 248 229 230 221 223 224 207 240 304 302 298 194 192 151 133 75 68 155 217 169 165 157 154 154 141 161 148 120 129 101 85 40 16 6 45 59 24 80 70 13 5 8 219
269 262 258 253 246 230 223 219 218 211 184 220 326 218 296 281 221 142 91 66 141 190 187 137 132 142 170 133 164 171 125 119 66 96 118 129 303 0 330 77 174 118 143 146 186 202 256
263 259 253 250 243 236 218 214 212 199 174 162 78 337 296 235 219 168 150 196 196 204 143 135 122 149 147 168 142 140 166 164 139 119 130 112 308 348 56 57 94 226 68 152 105 10 49
259 255 250 242 241 233 220 214 205 198 165 153 129 33 249 166 198 165 175 207 191 227 129 146 136 164 167 171 133 138 174 208 133 112 128 198 89 262 219 23 23 104 70 62 358 117 269
251 248 245 241 235 230 223 210 199 185 164 151 141 32 277 155 148 177 202 182 196 194 144 158 160 136 156 157 147 157 176 92 126 120 92 140 103 266 89 191 174 31 42 59 108 113 158
247 243 240 238 232 228 218 204 197 178 163 136 152 193 299 187 179 192 199 165 245 201 181 196 128 105 154 152 141 144 180 193 151 138 138 189 126 136 215 358 129 111 158 135 119 255 155
242 238 234 230 228 222 214 202 196 171 159 134 146 228 295 226 194 197 165 197 255 197 182 173 163 135 145 147 129 141 119 160 140 137 160 179 104 92 4 352 301 165 160 126 111 91 200
238 236 231 224 219 216 212 200 193 170 171 105 107 203 284 314 204 199 178 191 214 237 194 159 133 100 108 125 53 129 115 152 145 117 140 94 137 162 181 197 148 165 167 170 127 116 183
232 231 227 219 213 211 207 200 189 172 174 114 168 207 277 213 195 198 177 186 200 228 220 158 80 156 140 125 106 116 120 100 53 140 104 121 148 179 202 138 143 168 172 182 185 188 163
230 225 220 217 210 207 204 197 185 171 168 103 157 156 163 297 220 207 185 192 194 208 189 176 136 150 139 152 168 177 137 154 178 171 141 142 149 128 315 225 218 216 192 191 205 215 261
229 220 215 210 205 202 200 194 180 170 160 142 189 258 94 204 197 193 202 192 199 194 274 144 139 114 112 155 135 126 110 132 151 141 140 129 126 99 242 202 43 318 214 187 191 198 202
222 215 209 204 201 198 196 192 180 177 182 119 149 132 150 272 196 206 184 186 189 183 157 114 122 110 99 103 87 68 51 73 119 107 128 129 116 113 163 62 336 245 252 190 201 211 209
217 209 203 200 197 194 194 190 181 181 185 152 147 169 145 257 214 191 184 184 173 173 154 128 108 130 137 101 87 80 13 61 153 167 153 126 115 126 150 203 295 270 195 165 172 263 197
211 205 198 196 194 192 191 189 182 184 182 172 185 77 128 328 213 187 179 172 168 169 107 98 105 143 78 89 94 140 178 174 165 144 216 114 88 118 149 166 226 241 163 131 100 290 211
208 201 196 191 191 190 189 187 181 184 180 174 162 178 119 247 245 180 186 170 140 121 117 124 149 90 73 106 110 142 203 163 157 165 170 147 70 155 118 230 285 238 184 122 105 232 214
206 198 192 188 188 187 186 183 183 184 182 173 181 179 188 211 282 194 188 166 145 165 156 178 99 322 53 87 119 193 129 205 128 177 174 157 146 176 118 114 270 187 114 171 212 219 140
200 195 187 184 184 183 182 182 186 186 180 172 181 185 191 217 293 287 208 187 172 149 130 27 143 165 168 102 78 111 107 123 148 202 190 184 180 180 182 209 229 238 191 207 170 149 166